TimeEST,TemperatureF,Dew PointF,Humidity,Sea Level PressureIn,VisibilityMPH,Wind Direction,Wind SpeedMPH,Gust SpeedMPH,PrecipitationIn,Events,Conditions,WindDirDegrees,DateUTC
12:15 AM,26.6,23.0,86,30.13,10.0,Calm,Calm,-,N/A,,Overcast,0,2012-12-12 05:15:00
12:35 AM,24.8,21.2,86,30.13,10.0,Calm,Calm,-,N/A,,Overcast,0,2012-12-12 05:35:00
12:55 AM,24.8,21.2,86,30.13,10.0,NW,4.6,-,N/A,,Overcast,310,2012-12-12 05:55:00
1:15 AM,24.8,21.2,86,30.13,10.0,Calm,Calm,-,N/A,,Overcast,0,2012-12-12 06:15:00
1:35 AM,24.8,23.0,93,30.14,10.0,Calm,Calm,-,N/A,,Mostly Cloudy,0,2012-12-12 06:35:00
1:55 AM,26.6,24.8,93,30.15,10.0,SSE,3.5,-,N/A,,Scattered Clouds,160,2012-12-12 06:55:00
2:15 AM,26.6,23.0,86,30.15,10.0,Calm,Calm,-,N/A,,Scattered Clouds,0,2012-12-12 07:15:00
2:35 AM,26.6,24.8,93,30.17,10.0,South,3.5,-,N/A,,Mostly Cloudy,170,2012-12-12 07:35:00
2:55 AM,26.6,24.8,93,30.17,10.0,South,3.5,-,N/A,,Mostly Cloudy,170,2012-12-12 07:55:00
3:15 AM,28.4,24.8,86,30.18,10.0,SSW,3.5,-,N/A,,Scattered Clouds,200,2012-12-12 08:15:00
3:35 AM,28.4,24.8,86,30.17,10.0,Calm,Calm,-,N/A,,Scattered Clouds,0,2012-12-12 08:35:00
3:55 AM,26.6,24.8,93,30.17,10.0,Calm,Calm,-,N/A,,Mostly Cloudy,0,2012-12-12 08:55:00
4:15 AM,26.6,24.8,93,30.17,10.0,Calm,Calm,-,N/A,,Overcast,0,2012-12-12 09:15:00
4:35 AM,28.4,26.6,93,30.18,10.0,South,3.5,-,N/A,,Mostly Cloudy,180,2012-12-12 09:35:00
4:55 AM,28.4,26.6,93,30.18,10.0,Calm,Calm,-,N/A,,Scattered Clouds,0,2012-12-12 09:55:00
5:15 AM,28.4,24.8,86,30.19,10.0,Calm,Calm,-,N/A,,Scattered Clouds,0,2012-12-12 10:15:00
5:35 AM,24.8,23.0,93,30.20,10.0,Calm,Calm,-,N/A,,Scattered Clouds,0,2012-12-12 10:35:00
5:55 AM,26.6,23.0,86,30.20,10.0,Calm,Calm,-,N/A,,Mostly Cloudy,0,2012-12-12 10:55:00
6:15 AM,26.6,24.8,93,30.21,10.0,Calm,Calm,-,N/A,,Overcast,0,2012-12-12 11:15:00
6:35 AM,28.4,26.6,93,30.22,10.0,Calm,Calm,-,N/A,,Overcast,0,2012-12-12 11:35:00
6:55 AM,28.4,26.6,93,30.23,10.0,Calm,Calm,-,N/A,,Overcast,0,2012-12-12 11:55:00
7:15 AM,28.4,26.6,93,30.24,10.0,Calm,Calm,-,N/A,,Overcast,0,2012-12-12 12:15:00
7:35 AM,28.4,26.6,93,30.24,10.0,Calm,Calm,-,N/A,,Overcast,0,2012-12-12 12:35:00
7:55 AM,28.4,26.6,93,30.26,10.0,Calm,Calm,-,N/A,,Overcast,0,2012-12-12 12:55:00
8:15 AM,28.4,26.6,93,30.26,10.0,Calm,Calm,-,N/A,,Overcast,0,2012-12-12 13:15:00
8:35 AM,28.4,26.6,93,30.27,10.0,Calm,Calm,-,N/A,,Mostly Cloudy,0,2012-12-12 13:35:00
8:55 AM,30.2,26.6,86,30.27,10.0,Calm,Calm,-,N/A,,Mostly Cloudy,0,2012-12-12 13:55:00
9:15 AM,30.2,26.6,86,30.27,10.0,Calm,Calm,-,N/A,,Scattered Clouds,0,2012-12-12 14:15:00
9:35 AM,30.2,26.6,86,30.28,10.0,Calm,Calm,-,N/A,,Clear,0,2012-12-12 14:35:00
9:55 AM,30.2,28.4,93,30.28,10.0,Calm,Calm,-,N/A,,Clear,0,2012-12-12 14:55:00
10:15 AM,30.2,26.6,86,30.28,10.0,Calm,Calm,-,N/A,,Clear,0,2012-12-12 15:15:00
10:35 AM,30.2,26.6,86,30.28,10.0,Calm,Calm,-,N/A,,Clear,0,2012-12-12 15:35:00
10:55 AM,32.0,26.6,80,30.28,10.0,Calm,Calm,-,N/A,,Clear,0,2012-12-12 15:55:00
11:15 AM,32.0,26.6,80,30.28,10.0,Calm,Calm,-,N/A,,Clear,0,2012-12-12 16:15:00
11:35 AM,30.2,26.6,86,30.28,10.0,Calm,Calm,-,N/A,,Clear,0,2012-12-12 16:35:00
12:15 PM,30.2,26.6,86,30.28,10.0,Calm,Calm,-,N/A,,Clear,0,2012-12-12 17:15:00
12:35 PM,30.2,26.6,86,30.27,10.0,Calm,Calm,-,N/A,,Clear,0,2012-12-12 17:35:00
12:55 PM,30.2,26.6,86,30.27,10.0,Calm,Calm,-,N/A,,Clear,0,2012-12-12 17:55:00
1:15 PM,30.2,26.6,86,30.27,10.0,Calm,Calm,-,N/A,,Clear,0,2012-12-12 18:15:00
1:35 PM,30.2,26.6,86,30.26,10.0,Calm,Calm,-,N/A,,Clear,0,2012-12-12 18:35:00
1:55 PM,30.2,26.6,86,30.25,10.0,Calm,Calm,-,N/A,,Clear,0,2012-12-12 18:55:00
2:15 PM,30.2,26.6,86,30.26,10.0,East,3.5,-,N/A,,Clear,80,2012-12-12 19:15:00
2:35 PM,30.2,26.6,86,30.26,10.0,ENE,4.6,-,N/A,,Clear,60,2012-12-12 19:35:00
2:55 PM,30.2,26.6,86,30.25,10.0,East,4.6,-,N/A,,Clear,100,2012-12-12 19:55:00
3:15 PM,30.2,26.6,86,30.26,10.0,East,4.6,-,N/A,,Clear,90,2012-12-12 20:15:00
3:35 PM,30.2,26.6,86,30.27,10.0,East,4.6,-,N/A,,Clear,80,2012-12-12 20:35:00
3:55 PM,30.2,26.6,86,30.27,10.0,East,5.8,-,N/A,,Clear,80,2012-12-12 20:55:00
4:15 PM,30.2,26.6,86,30.27,10.0,ENE,3.5,-,N/A,,Clear,60,2012-12-12 21:15:00
4:35 PM,30.2,26.6,86,30.27,10.0,East,5.8,-,N/A,,Clear,80,2012-12-12 21:35:00
4:55 PM,30.2,26.6,86,30.26,10.0,ENE,5.8,-,N/A,,Clear,60,2012-12-12 21:55:00
5:15 PM,30.2,26.6,86,30.27,10.0,East,4.6,-,N/A,,Clear,90,2012-12-12 22:15:00
5:35 PM,30.2,26.6,86,30.27,10.0,ENE,4.6,-,N/A,,Clear,70,2012-12-12 22:35:00
5:55 PM,28.4,26.6,93,30.28,10.0,ENE,6.9,-,N/A,,Clear,60,2012-12-12 22:55:00
6:15 PM,28.4,26.6,93,30.27,10.0,ENE,5.8,-,N/A,,Clear,60,2012-12-12 23:15:00
6:35 PM,28.4,26.6,93,30.28,10.0,ENE,4.6,-,N/A,,Clear,70,2012-12-12 23:35:00
7:15 PM,28.4,26.6,93,30.28,10.0,East,5.8,-,N/A,,Clear,90,2012-12-13 00:15:00
7:35 PM,28.4,26.6,93,30.28,10.0,East,4.6,-,N/A,,Clear,100,2012-12-13 00:35:00
7:55 PM,28.4,26.6,93,30.29,10.0,ENE,5.8,-,N/A,,Clear,70,2012-12-13 00:55:00
8:15 PM,28.4,21.2,74,30.29,10.0,East,8.1,-,N/A,,Clear,80,2012-12-13 01:15:00
8:35 PM,26.6,24.8,93,30.30,10.0,East,6.9,-,N/A,,Clear,80,2012-12-13 01:35:00
8:55 PM,26.6,24.8,93,30.30,10.0,ENE,9.2,-,N/A,,Mostly Cloudy,70,2012-12-13 01:55:00
9:15 PM,26.6,24.8,93,30.30,10.0,East,9.2,-,N/A,,Mostly Cloudy,80,2012-12-13 02:15:00
9:35 PM,26.6,24.8,93,30.29,10.0,East,10.4,-,N/A,,Scattered Clouds,80,2012-12-13 02:35:00
9:55 PM,26.6,24.8,93,30.28,10.0,East,9.2,-,N/A,,Scattered Clouds,80,2012-12-13 02:55:00
10:35 PM,26.6,19.4,74,30.28,10.0,East,11.5,16.1,N/A,,Clear,80,2012-12-13 03:35:00
10:55 PM,26.6,17.6,69,30.28,10.0,East,11.5,-,N/A,,Scattered Clouds,80,2012-12-13 03:55:00
11:15 PM,26.6,17.6,69,30.27,10.0,East,11.5,-,N/A,,Scattered Clouds,80,2012-12-13 04:15:00
11:35 PM,26.6,17.6,69,30.27,10.0,East,9.2,16.1,N/A,,Scattered Clouds,80,2012-12-13 04:35:00
11:55 PM,26.6,17.6,69,30.26,10.0,East,9.2,-,N/A,,Scattered Clouds,80,2012-12-13 04:55:00